EHI
3 1 1 1 1 0 0 0 1 1 1 0 0 0 1 0 0 1 3 8 10 8 6 6 4 2 1 3 3 2 1 1 0 0 0 0 1 1 1 0 0 0 0
3 2 1 1 0 0 0 0 0 1 1 1 1 2 2 1 1 1 3 7 11 10 9 8 6 4 2 3 4 3 3 2 1 1 0 0 0 0 0 0 0 0 0
4 3 2 1 1 1 2 2 1 1 2 4 5 4 5 4 3 3 5 8 10 10 9 8 7 5 4 3 5 5 4 3 3 2 1 0 0 0 0 0 0 0 0
6 4 3 2 3 4 5 5 3 2 3 6 7 6 7 7 6 5 7 11 12 12 10 9 8 7 5 4 6 6 4 3 2 1 0 0 0 0 0 0 0 0 0
7 6 5 5 5 5 5 4 4 3 4 5 5 5 6 8 7 6 8 12 15 16 13 10 10 9 6 5 6 6 4 2 1 0 0 0 0 0 0 0 0 0 0
9 9 9 9 6 4 3 3 4 5 5 5 4 3 3 5 6 7 6 7 11 15 13 13 14 11 9 7 7 7 6 4 3 2 2 1 1 0 1 1 1 0 0
11 11 10 10 7 4 3 3 4 5 6 6 4 2 1 2 5 7 5 3 4 8 12 15 18 17 12 8 7 7 8 7 6 4 4 4 2 1 1 2 2 1 0
15 12 11 11 8 6 4 4 5 5 4 4 3 1 0 1 3 5 5 3 3 5 10 15 19 20 16 9 7 7 7 8 7 6 6 5 3 1 1 2 2 1 0
19 16 15 15 12 8 6 5 5 5 4 3 2 1 1 1 1 2 3 5 5 6 7 11 16 19 17 13 10 7 7 7 8 8 7 6 4 2 1 1 1 0 0
21 20 19 18 16 12 8 7 6 6 4 3 3 3 3 3 2 2 2 3 5 7 7 8 11 14 16 16 16 13 8 6 7 7 7 7 6 4 2 1 1 1 0
23 22 20 19 17 13 11 9 8 6 5 5 5 4 4 5 4 3 1 1 2 5 9 9 8 9 12 15 17 15 9 4 3 4 5 5 5 4 3 2 2 1 1
27 24 21 20 18 14 12 11 9 8 7 6 5 3 3 4 4 3 2 1 0 3 7 10 10 9 10 11 12 10 6 2 1 1 1 2 2 1 1 1 1 1 0
26 25 23 21 19 15 12 11 11 10 8 6 5 3 3 4 5 5 3 1 0 1 4 8 10 10 8 7 6 5 2 1 0 0 0 0 0 0 0 0 0 0 0
22 22 23 20 17 15 13 12 13 11 8 6 6 5 5 6 7 7 6 3 1 0 2 5 7 6 5 4 3 3 2 1 0 0 0 0 0 0 0 0 0 0 0
20 23 24 21 17 15 15 15 14 11 8 9 8 7 7 7 7 7 7 6 2 0 0 2 3 3 3 2 2 3 3 1 0 0 0 0 0 0 0 0 0 0 0
22 25 26 23 17 15 15 15 13 10 8 10 10 9 8 7 7 6 6 6 3 1 1 2 2 1 1 1 2 3 3 1 0 0 0 0 0 0 0 0 0 0 0
25 26 26 23 17 14 16 16 13 9 8 9 10 10 9 8 7 7 6 5 3 2 1 1 1 1 1 2 3 3 2 1 1 0 0 0 0 0 0 0 0 0 0
26 25 24 22 17 15 16 16 12 9 8 8 9 9 7 6 6 5 5 4 3 2 1 0 0 0 1 1 2 2 1 1 1 0 0 0 0 0 0 0 0 0 0
25 24 22 20 17 15 15 14 11 9 8 7 6 5 4 4 4 3 3 3 2 1 0 0 0 0 0 0 1 1 0 0 0 0 0 0 0 0 0 0 0 0 0
25 24 22 18 15 12 11 11 10 9 8 6 4 3 3 3 2 2 2 2 1 0 0 0 0 0 0 0 0 0 0 0 0 0 0 0 0 0 0 0 0 0 0
25 25 22 18 13 9 7 7 8 8 7 6 4 3 3 2 1 1 1 1 0 0 0 0 0 0 0 0 0 0 0 0 0 0 0 0 0 0 0 0 0 0 0
26 23 20 17 12 7 4 3 4 5 7 6 5 3 2 1 0 0 0 0 0 0 0 0 0 0 0 0 0 0 0 0 0 0 0 0 0 0 0 0 0 0 0
23 21 18 16 11 6 2 1 2 4 6 6 4 2 1 0 0 0 0 0 0 0 0 0 0 0 0 0 0 0 0 0 0 0 0 0 0 0 0 0 0 0 0
20 19 18 15 11 6 2 0 1 2 4 4 3 1 0 0 0 0 0 0 0 0 0 0 0 0 0 0 0 0 0 0 0 0 0 0 0 0 0 0 0 0 0
18 18 17 14 10 6 2 0 1 2 3 3 2 1 0 0 0 0 0 0 0 0 0 0 0 0 0 0 0 0 0 0 0 0 0 0 0 0 0 0 0 0 0
17 17 16 13 9 6 2 0 1 2 3 3 1 0 0 0 0 0 0 0 0 0 0 0 0 0 0 0 0 0 0 0 0 0 0 0 0 0 0 0 0 0 0
Wind_Speed
1 1 1 1 1 1 2 1 1 1 1 1 0 0 1 2 5 6 6 11 11 10 10 10 9 9 8 8 8 7 7 7 7 6 6 6 6 6 6 6 5 5 5
2 1 0 0 0 1 1 1 1 1 0 0 0 0 1 2 3 5 6 8 10 10 10 10 9 9 9 9 8 8 8 8 7 7 7 7 7 7 7 7 6 6 6
1 1 1 1 0 1 1 1 1 1 2 2 1 1 1 1 2 4 6 5 6 9 10 9 9 9 10 9 9 9 8 8 7 7 8 8 7 7 7 7 7 7 7
1 0 1 1 1 1 1 1 1 1 1 1 1 1 1 2 3 3 4 5 5 6 8 10 9 9 10 10 10 9 9 8 8 8 8 9 9 8 8 8 8 8 8
1 1 1 0 1 1 1 1 1 1 1 1 1 2 2 2 3 4 4 5 5 5 6 8 10 10 10 10 10 10 10 9 9 9 9 10 10 9 9 9 9 9 8
1 1 1 1 2 1 1 1 1 2 2 2 3 2 2 2 3 3 3 3 4 6 6 7 7 7 11 10 10 10 10 9 9 9 10 10 10 10 10 10 10 10 9
1 1 1 1 1 1 1 2 2 2 2 2 1 1 2 2 2 2 2 2 3 4 4 6 5 4 5 10 10 10 10 10 9 9 9 9 10 9 9 10 10 10 10
2 2 2 1 1 1 1 2 1 1 2 2 1 1 1 1 1 3 2 2 2 2 3 4 4 3 3 3 4 8 8 8 8 8 8 7 8 7 8 9 9 10 10
2 1 1 2 2 1 1 2 2 3 2 2 2 1 1 1 1 1 1 1 1 1 1 2 3 3 3 2 3 5 6 6 7 8 7 7 7 8 8 8 9 10 10
2 2 2 2 2 1 2 3 2 2 2 2 2 1 2 2 2 1 1 0 1 1 1 1 2 3 3 2 3 5 6 5 5 5 5 5 5 5 6 7 9 9 9
1 2 2 2 2 2 2 2 2 2 2 2 2 1 2 1 2 2 2 1 0 0 1 1 1 2 2 3 2 5 6 5 3 2 2 3 3 3 4 5 7 7 7
0 1 1 1 1 1 2 2 2 2 2 2 2 1 1 1 2 2 2 2 1 1 1 1 1 2 2 2 3 6 7 6 4 3 1 1 1 1 2 3 4 5 4
1 1 0 0 1 1 1 2 1 2 2 2 2 2 2 2 1 1 1 1 1 1 0 0 1 1 3 3 3 7 7 6 5 4 4 4 4 3 3 3 3 3 3
1 1 1 1 1 1 1 1 1 1 1 2 2 2 2 2 1 1 1 1 1 1 1 0 2 2 3 4 5 5 5 7 6 6 5 5 5 5 5 6 6 6 5
1 2 2 1 1 2 2 1 1 1 1 1 1 2 2 1 1 1 1 1 2 2 1 1 1 2 3 4 5 4 5 9 9 8 7 8 8 8 8 9 8 8 7
2 2 2 2 2 2 2 1 1 1 1 1 1 2 2 2 1 1 0 1 1 1 1 1 1 2 3 4 7 6 7 11 10 10 9 10 10 10 9 9 9 9 9
2 2 2 3 3 3 3 2 2 2 2 3 2 2 2 2 2 1 1 1 1 1 1 1 2 2 3 4 4 4 5 6 6 10 10 10 10 10 11 11 10 10 10
2 2 2 3 3 3 3 3 3 3 3 3 3 3 3 3 3 2 2 1 1 1 3 2 2 2 2 3 4 4 4 5 5 9 11 11 10 10 10 10 9 9 9
2 2 3 3 3 3 3 3 4 4 4 4 4 4 4 4 4 3 2 2 1 1 2 3 2 2 1 2 3 4 4 3 4 6 8 9 9 10 9 9 9 9 9
3 3 3 3 3 4 4 4 4 4 4 5 5 5 5 5 5 4 4 3 2 2 3 3 3 2 1 1 2 2 2 2 2 3 4 5 7 8 9 8 8 8 8
3 3 4 4 4 4 5 5 4 5 4 5 5 6 7 9 10 7 5 4 4 3 3 3 3 2 2 1 1 1 2 2 2 2 2 2 3 3 3 5 6 7 6
4 4 4 5 6 5 8 8 5 4 4 4 4 4 5 7 9 9 10 9 7 4 3 3 3 2 2 1 1 1 1 1 1 1 1 2 2 2 2 2 3 4 4
4 5 5 6 6 7 9 9 8 4 5 5 5 4 5 6 5 4 6 7 8 8 6 3 3 2 2 1 1 1 1 1 1 1 1 1 1 2 2 3 5 4 3
4 4 5 5 5 6 8 8 7 4 4 4 4 5 5 5 6 5 4 6 6 5 5 3 3 2 2 2 1 0 1 2 1 1 0 0 1 1 2 3 6 5 4
4 4 4 4 5 5 7 7 5 2 3 4 5 6 5 5 7 7 4 4 4 3 5 6 5 3 3 3 3 2 1 1 1 1 1 0 0 1 2 2 4 7 6
4 4 4 4 5 5 6 7 6 2 3 3 4 5 8 7 7 7 3 3 3 2 2 3 3 3 3 3 4 3 2 1 1 1 1 1 1 0 0 1 2 3 3
Wind_Direction
104 103 82 91 171 155 155 166 161 137 160 193 242 84 62 84 118 130 139 157 159 164 168 173 176 178 181 183 184 186 188 188 187 186 189 191 192 194 195 195 195 193 192
85 91 122 142 171 131 131 165 171 173 173 355 249 329 88 102 118 131 145 161 168 172 176 181 184 187 189 191 194 195 197 199 199 198 202 205 206 209 206 207 207 208 208
86 118 181 229 225 170 149 172 231 220 198 205 213 211 154 148 140 145 153 161 171 184 187 190 193 195 198 200 201 200 201 204 206 206 208 210 213 216 216 216 216 217 217
136 252 214 218 269 238 179 187 225 246 243 220 201 211 175 173 168 173 169 170 168 175 189 194 196 200 204 207 207 207 208 209 211 213 216 216 218 220 222 224 223 222 222
218 246 279 216 259 267 238 233 174 222 261 267 226 214 208 190 185 196 179 181 176 169 173 189 194 198 208 213 214 214 215 215 215 218 222 224 224 223 225 226 227 227 228
230 260 248 238 262 257 257 248 218 227 242 249 255 223 220 199 195 183 193 190 184 181 178 176 185 203 212 217 217 219 221 220 220 224 227 228 228 227 226 228 229 232 232
228 236 290 267 272 265 252 248 229 235 240 225 246 291 277 242 199 186 199 198 192 185 177 169 178 185 196 213 220 222 224 224 225 229 232 234 234 231 228 230 231 234 237
211 227 228 248 252 259 259 265 245 245 264 238 206 204 271 296 278 230 185 192 202 168 161 166 168 175 181 179 197 212 221 224 225 229 235 237 237 234 233 233 233 234 237
203 238 236 256 265 251 243 254 246 236 243 265 243 187 189 213 307 291 216 206 173 160 164 153 155 163 170 153 172 200 212 218 226 228 232 233 235 236 237 240 241 238 238
216 225 229 240 258 262 251 255 226 237 236 250 259 230 217 180 168 266 307 260 189 168 186 178 159 156 163 148 145 154 182 202 219 224 230 233 234 239 244 245 247 246 242
219 225 229 239 249 258 259 266 280 261 250 252 260 245 235 226 195 195 224 243 7 43 158 156 135 145 154 151 138 131 153 167 179 198 234 246 247 246 253 259 259 254 250
224 226 222 231 245 255 268 264 262 259 260 264 276 276 257 241 223 212 208 200 199 263 225 173 160 157 140 112 122 122 131 135 135 132 115 52 20 339 296 279 277 269 267
47 14 0 277 280 269 269 271 266 261 265 263 269 277 275 268 265 215 184 188 196 253 272 96 91 84 108 98 90 103 114 121 120 113 95 74 54 39 27 18 9 0 355
46 14 18 12 329 306 300 296 304 275 277 275 273 278 279 284 287 259 193 180 201 245 246 175 85 88 82 86 92 100 100 103 99 92 87 78 65 55 49 47 44 40 35
23 39 33 24 4 355 345 18 5 343 2 330 318 320 303 302 302 296 237 199 188 210 232 176 92 91 99 103 107 98 88 86 87 85 81 77 71 66 63 60 56 53 52
31 39 27 29 29 17 11 23 27 6 15 8 357 349 334 329 327 323 264 252 214 198 217 94 86 96 88 91 100 99 93 92 85 84 81 78 76 72 67 63 61 60 60
50 34 23 24 35 35 26 30 34 28 30 24 11 9 349 347 343 340 346 6 54 111 137 77 81 84 89 94 100 102 105 98 92 89 85 82 79 75 71 67 64 61 61
72 54 48 38 36 48 46 47 40 39 37 30 21 16 3 2 9 11 9 23 47 122 141 141 105 89 92 99 109 104 104 106 102 97 93 88 84 80 75 71 67 62 58
77 66 62 57 44 48 52 58 57 47 43 38 33 28 21 19 14 11 22 22 27 85 126 132 125 110 103 106 108 101 98 97 106 109 102 93 88 84 80 76 72 65 59
78 70 65 63 60 56 46 53 66 63 58 54 48 42 35 36 29 21 34 28 47 74 98 110 108 95 78 82 115 120 112 97 98 104 100 106 103 91 84 81 78 74 68
81 74 68 64 60 60 43 45 58 66 61 59 57 59 60 65 60 52 54 42 44 66 85 95 95 83 71 69 95 118 119 117 87 90 114 113 110 90 83 80 79 81 78
79 79 75 71 64 57 44 44 48 61 60 61 63 65 75 70 71 70 69 61 55 62 69 85 86 89 72 49 60 117 123 132 118 121 117 115 121 114 115 102 104 104 95
89 85 81 81 75 55 43 39 41 51 61 54 50 44 51 57 52 62 75 71 62 57 66 88 87 77 76 37 32 86 91 102 138 179 150 153 142 129 133 134 148 147 141
98 90 85 85 84 63 44 40 38 62 70 64 57 52 56 49 38 36 62 70 65 53 58 78 83 76 68 34 358 108 141 143 136 126 145 175 183 173 151 155 178 180 180
104 98 92 89 85 68 42 39 27 73 82 72 68 58 53 52 34 34 62 76 78 82 76 77 81 88 88 58 39 40 45 92 104 71 1 323 179 157 152 161 188 197 200
114 107 98 95 93 81 51 41 27 61 94 92 87 75 61 53 42 34 50 70 63 42 61 88 88 89 91 80 61 47 22 11 38 76 22 358 359 35 94 149 161 180 208